Weather History for Big Piney, WY

Change the Weather History Date:

Wednesday, April 24, 2013

  Actual Average Record
Temperature  
Mean Temperature 32 °F 39 °F  
Max Temperature 49 °F 55 °F 76 °F (2012)
Min Temperature 15 °F 24 °F 12 °F (2011)
Degree Days  
Heating Degree Days 33 26  
Month to date heating degree days 786 688  
Since 1 July heating degree days 8768 9383  
Cooling Degree Days 0 0  
Month to date cooling degree days 0 0  
Year to date cooling degree days 0 0  
Moisture  
Dew Point 14 °F    
Average Humidity 50    
Maximum Humidity 80    
Minimum Humidity 19    
Precipitation  
Precipitation 0.00 in 0.02 in 0.42 in (1999)
Month to date precipitation 0.25 0.39  
Year to date precipitation 0.44 1.49  
Sea Level Pressure  
Sea Level Pressure 30.18 in    
Wind  
Wind Speed 6 mph (NNW)    
Max Wind Speed 15 mph    
Max Gust Speed 22 mph    
Visibility 10 miles    
Events      
T = Trace of Precipitation, MM = Missing Value Source: NWS Daily Summary

Daily Weather History Graph

Daily Weather History Graph

Search for Another Location

Airport:

Trip Planner

Search our weather history database for the weather conditions in past years. The results will help you decide how hot, cold, wet, or windy it might be!

Date:

Astronomy

Apr. 24, 2013 Rise Set
Actual Time 6:24 AM MDT 8:13 PM MDT
Civil Twilight 5:54 AM MDT 8:43 PM MDT
Nautical Twilight 5:18 AM MDT 9:20 PM MDT
Astronomical Twilight 4:38 AM MDT 9:59 PM MDT
Moon 7:19 PM MDT (4/24) 5:32 AM MDT (4/24)
Length of Visible Light 14h 48m
Length of Day
13h 48m
Waxing Gibbous, 98% of the Moon is Illuminated
Apr 24
Waxing Gibbous
Apr 25
Full
May 2
Last Quarter
May 9
New
May 17
First Quarter

Hourly Weather History & Observations

Time (MDT) Temp. Windchill Dew Point Humidity Pressure Visibility Wind Dir Wind Speed Gust Speed Precip Events Conditions
12:53 AM 23.0 °F 13.9 °F 15.1 °F 72% 30.23 in 10.0 mi NNW 8.1 mph - N/A   Clear
1:53 AM 21.9 °F 13.4 °F 12.0 °F 66% 30.22 in 10.0 mi NW 6.9 mph - N/A   Clear
2:53 AM 19.0 °F 12.3 °F 12.9 °F 77% 30.21 in 10.0 mi West 4.6 mph - N/A   Clear
3:53 AM 21.2 °F 14.9 °F 10.4 °F 63% 30.13 in 10.0 mi NNW 4.6 mph - N/A   Clear
4:53 AM 18.0 °F - 12.0 °F 78% 30.20 in 10.0 mi Calm Calm - N/A   Clear
5:53 AM 17.1 °F 11.7 °F 10.9 °F 77% 30.21 in 10.0 mi NE 3.5 mph - N/A   Clear
6:53 AM 19.0 °F - 10.9 °F 71% 30.22 in 10.0 mi Calm Calm - N/A   Clear
7:53 AM 25.0 °F - 15.1 °F 66% 30.22 in 10.0 mi Calm Calm - N/A   Clear
8:53 AM 30.0 °F 25.2 °F 18.0 °F 61% 30.22 in 10.0 mi SW 4.6 mph - N/A   Clear
9:53 AM 35.1 °F 27.9 °F 14.0 °F 42% 30.21 in 10.0 mi NNW 9.2 mph - N/A   Clear
10:53 AM 37.9 °F 30.5 °F 15.1 °F 39% 30.22 in 10.0 mi North 11.5 mph - N/A   Clear
11:53 AM 39.0 °F 31.8 °F 12.9 °F 34% 30.22 in 10.0 mi NW 11.5 mph - N/A   Clear
12:53 PM 42.1 °F 35.2 °F 14.0 °F 32% 30.20 in 10.0 mi NNW 12.7 mph 16.1 mph N/A   Clear
1:53 PM 44.1 °F 38.1 °F 12.0 °F 27% 30.19 in 10.0 mi North 11.5 mph - N/A   Clear
2:53 PM 46.0 °F 41.0 °F 12.9 °F 26% 30.19 in 10.0 mi NE 10.4 mph 17.3 mph N/A   Clear
3:53 PM 46.9 °F - 10.9 °F 23% 30.15 in 10.0 mi Variable 4.6 mph - N/A   Clear
4:53 PM 46.9 °F - 8.1 °F 21% 30.15 in 10.0 mi West 8.1 mph - N/A   Clear
5:53 PM 48.0 °F - 9.0 °F 21% 30.14 in 10.0 mi WNW 10.4 mph 18.4 mph N/A   Clear
6:53 PM 46.9 °F - 9.0 °F 21% 30.14 in 10.0 mi NW 5.8 mph - N/A   Clear
7:53 PM 42.1 °F 37.7 °F 16.0 °F 35% 30.12 in 10.0 mi NW 6.9 mph - N/A   Clear
8:53 PM 33.1 °F 25.5 °F 19.9 °F 59% 30.16 in 10.0 mi North 9.2 mph - N/A   Clear
9:53 PM 27.0 °F 18.0 °F 19.9 °F 75% 30.19 in 10.0 mi NNW 9.2 mph - N/A   Clear
10:53 PM 27.0 °F 18.7 °F 19.0 °F 72% 30.16 in 10.0 mi North 8.1 mph - N/A   Clear
11:53 PM 28.9 °F - 19.0 °F 67% 30.13 in 10.0 mi Calm Calm - N/A   Clear